Regional Weather Roundup
Issued by NWS

Home | Current Version | Previous Version | Text Only | Print | Product List | Glossary On
Versions: 1 2 3 4 5 6 7 8 9 10 11 12 13 14 15 16 17 18 19 20 21 22 23 24 25 26 27 28 29 30 31 32 33 34 35 36 37 38 39 40 41 42 43 44 45 46 47 48 49 50
046
ASUS43 KFSD 180210
RWRSD

WEATHER ROUNDUP FOR SOUTH DAKOTA
NATIONAL WEATHER SERVICE SIOUX FALLS SD
900 PM CDT THU AUG 17 2017

NOTE: "FAIR" INDICATES FEW OR NO CLOUDS BELOW 12,000 FEET WITH NO
SIGNIFICANT WEATHER AND/OR OBSTRUCTIONS TO VISIBILITY.


SDZ001>005-009-010-012>017-180300-
NORTHWEST AND NORTH CENTRAL SOUTH DAKOTA

CITY           SKY/WX    TMP DP  RH WIND       PRES   REMARKS
BUFFALO          N/A     72  46  39 W10       29.87R
FAITH            N/A     76  44  32 W9        29.90S
MOBRIDGE       CLOUDY    70  61  73 SE7       29.83S
$$

SDZ012>016-024>037-041>051-057-063-072>074-180300-
SOUTHWEST AND SOUTH CENTRAL SOUTH DAKOTA

CITY           SKY/WX    TMP DP  RH WIND       PRES   REMARKS
RAPID CTY ARPT PTCLDY    65  55  70 W8        29.96R
PIERRE         CLOUDY    70  58  65 NE12      29.86R
CUSTER         CLOUDY    58  47  66 CALM      30.10F
ELLSWORTH AFB  MOCLDY    64  57  78 W9        29.96R
PHILIP         CLOUDY    76  49  38 NW13      29.91R
PINE RIDGE     CLOUDY    70  50  49 N15G30    29.97F
SPEARFISH      FAIR      68  46  45 W5        30.01S
WINNER         TSTM      75  53  46 SE13G30   29.89R
$$

SDZ004>011-016>023-039-040-180300-
NORTHEAST SOUTH DAKOTA

CITY           SKY/WX    TMP DP  RH WIND       PRES   REMARKS
ABERDEEN       CLOUDY    68  62  81 CALM      29.86S
WATERTOWN      CLEAR     68  58  70 CALM      29.89R
BROOKINGS      CLEAR     68  60  75 CALM      29.90S
SISSETON         N/A     69  64  84 CALM      29.86R
$$

SDZ017-020-022-023-036>040-048>070-180300-
SOUTHEAST SOUTH DAKOTA

CITY           SKY/WX    TMP DP  RH WIND       PRES   REMARKS
SIOUX FALLS    PTCLDY    66  62  87 CALM      29.89S
HURON          PTCLDY    71  60  68 E7        29.85S
CHAMBERLAIN    CLOUDY    76  64  68 W16       29.89R
MITCHELL       CLOUDY    70  63  78 E8        29.85S
YANKTON        CLEAR     70  62  76 E8        29.88F
$$

ABBREVIATIONS USED IN REMARKS
   TC - TEMPERATURE IN CELSIUS
  WCI - WIND CHILL INDEX
   HX - HEAT INDEX
  VSB - VISIBILITY





USA.gov is the U.S. government's official web portal to all federal, state and local government web resources and services.